Simultaneous Nadir Overpasses (SNOs) Predictions

Prediction of SNOs between GOES-16 and TERRA Satellite Orbit:

Table of predicted SNOs for the next 14.0 days since TLE Epoch: 1/9/2018
Index Date Time (GOES-16) GOES-16 Lat,Lon TERRA Lat,Lon Distance(km) Time Diff (sec)
1 01/09/2018 03:29:53 -0.00, -75.17 0.12, -74.53 72.82 80
2 01/11/2018 03:17:42 -0.00, -75.18 0.77, -71.58 409.65 80
3 01/11/2018 15:38:58 0.00, -75.21 0.30, -76.74 173.29 80
4 01/13/2018 15:24:06 0.00, -75.22 -0.29, -73.77 164.18 80
5 01/14/2018 03:45:30 0.00, -75.19 -0.82, -78.96 429.11 80
6 01/16/2018 03:33:19 -0.00, -75.21 -0.17, -76.01 90.95 80
7 01/18/2018 03:23:47 -0.01, -75.23 0.44, -73.05 247.83 80
8 01/18/2018 15:42:23 0.01, -75.27 0.63, -78.21 334.43 80
9 01/20/2018 15:30:11 0.02, -75.30 0.03, -75.25 5.38 80
10 01/22/2018 15:18:00 0.03, -75.33 -0.65, -72.30 345.13 80




NCC Satellite Simultaneous Nadir Overpasses (SNOs) Prediction Service
